Content
SEND FEEDBACK

Daily
Averages
Monthly
Summary
United States of America

HINGHAM, MASSACHUSETTS


Home > North America > United States > Massachusetts
Elevation: 3 feet     Latitude: 42 14N     Longitude: 070 55W

WEATHER
 
SELECT A DAY
Number of Records: 137,128;   Date Range: 10/15/98 - 12/27/14
 
SHARE

PRINT THIS DATA

[ ← Previous Day ]
WEATHER ALMANAC - FEBRUARY 9, 2013
[ Next Day → ]
[ °C ]   °F
Weather ElementAverageHighLow
Temperature16.8 °F19.9 °F (12:54 pm)12.9 °F (10:54 pm)
Dewpoint9.1 °F15.1 °F (6:54 am) (7:00 pm)
Humidity72.9 %92 % (6:54 am)56 % (7:54 pm)
Barometer29.83 in30.18 in (11:54 pm)29.53 in (1:54 am)
Wind Speed21.4 mph27.6 mph (11:54 am)
Wind Gust48.3 mph (1:54 am)
Weather ElementAverage
Wind DirectionNNW (335.2 °)

Weather ElementTotal
Precipitation3.02 in
Heating Degree Days48.6 (Base 65)
Averaged from 23 records on February 9, 2013
WEATHER CONDITIONS BREAKOUT
WIND DIRECTION BREAKOUT
WEATHER BY HOUR - FEBRUARY 9, 2013
[ °C ]   °F
Local TimeTemperatureDewpointHumidityBarometerVisibilityWind DirectionWind SpeedGust SpeedPrecipitationEventsConditions
1:54 AM15.1 °F12.0 °F88 %29.53 inNorth (360°)24.2 mph48.3 mph0.85 in
2:54 AM14.0 °F10.9 °F88 %29.55 inNorth (350°)21.9 mph41.4 mph0.09 in
3:54 AM15.1 °F12.0 °F88 %29.58 inNNW (340°)21.9 mph33.4 mph0.11 in
4:54 AM16.0 °F12.9 °F88 %29.58 inNorth (350°)18.4 mph39.1 mph0.12 in
5:54 AM16.0 °F12.9 °F88 %29.59 inNNW (340°)21.9 mph34.5 mph0.09 in
6:54 AM17.1 °F15.1 °F92 %29.63 inNorth (350°)18.4 mph28.8 mph0.04 in
7:54 AM18.0 °F15.1 °F88 %29.66 inNNW (340°)13.8 mph29.9 mph0.41 in
8:54 AM18.0 °F14.0 °F84 %29.68 inNNW (340°)21.9 mph38.0 mph0.10 in
9:54 AM16.0 °F12.9 °F88 %29.72 inNNW (330°)20.7 mph36.8 mph0.21 in
10:54 AM17.1 °F12.0 °F81 %29.75 inNNW (330°)23.0 mph38.0 mph0.87 in
11:54 AM18.0 °F12.0 °F78 %29.77 inNNW (340°)27.6 mph46.0 mph
12:54 PM19.9 °F12.0 °F71 %29.80 inNNW (330°)25.3 mph35.7 mph
1:54 PM19.9 °F10.0 °F65 %29.83 inNNW (330°)26.5 mph40.3 mph
2:54 PM19.0 °F8.1 °F62 %29.88 inNNW (330°)19.6 mph42.6 mph
3:54 PM19.9 °F9.0 °F62 %29.93 inNNW (330°)25.3 mph39.1 mph
4:54 PM19.0 °F8.1 °F62 %29.96 inNNW (330°)19.6 mph34.5 mph
5:54 PM19.0 °F6.1 °F57 %30.01 inNNW (330°)20.7 mph34.5 mph
6:54 PM18.0 °F5.0 °F57 %30.05 inNNW (330°)20.7 mph29.9 mph
7:54 PM17.1 °F3.9 °F56 %30.08 inNNW (330°)23.0 mph34.5 mph
8:54 PM15.1 °F3.0 °F59 %30.12 inNNW (330°)20.7 mph31.1 mph
9:54 PM14.0 °F1.9 °F59 %30.14 inNW (320°)20.7 mph27.6 mph0.01 in
10:54 PM12.9 °F1.0 °F59 %30.16 inNW (320°)17.3 mph31.1 mph0.02 in
11:54 PM12.9 °F0.0 °F56 %30.18 inNNW (330°)18.4 mph27.6 mph0.10 in
Hourly data recorded from KMQE, located miles away from Hingham, Massachusetts







STORIES FROM OUR PARTNERS